Showing default

ZHUHAI-1 OVS-02, 43440

Orbit data source: Space-Track

ZHUHAI-1 OVS-02, 43440 is a payload satellite owned by Zhuhai Orbita (CN) in SSO that was launched on Thu, 26 Apr 2018 UTC via a CHANG ZHENG 11 launch vehicle from the Jiuquan Satellite Launch Center, China (JSC). Payloads include a variety of satellites, spacecraft, and rockets equipped with specific instruments for various scientific and technological missions. These include communications satellites like Starlink; space stations such as the ISS; scientific satellites like the Hubble; Earth observation satellites from companies like Planet Labs, Umbra, and HawkEye 360; GPS; miniature CubeSats for education and research; and military/defense satellites.

Loading next visibility...
ZHUHAI-1 OVS-02 details
Identifier
43440, 2018-040B
Orbit
SSO
Last TLE update4 hours ago
Origin
Flag of CNZhuhai Orbita (CN / PRC)
ManufacturerHarbin
MissionOperational Commercial Imaging
Bus & MotorOVS-1, Unknown motor
Mass95 kg wet, 95 kg dry
Launch date (UTC)
2018-04-26 (7 years ago)
Launch vehicle
CHANG ZHENG 11
Launch site
Jiuquan Satellite Launch Center, China (JSC)
Object type
Payload
Rocket body
Debris
Shape & HBRBox, 1 m
Radar Cross Section0.375 m², Medium (>0.1 m² and < 1m²)

Expand to show TLE details & history

TLE from 4 hours ago
0 ZHUHAI-1 OVS-02
1 43440U 18040B   25015.15150428  .00013193  00000-0  49997-3 0  9995
2 43440  97.0943  58.1754 0000201 117.4342 242.6919 15.27006812373888
Epoch: 2025-01-15T03:38Z
Definitive object data (Epoch: 2025-01-15T03:38:09.969Z)
Latitude0.00003°
Longitude-111.2141°
Altitude487.938 km
Speed7.621 km/s
True Right ascension03h 52m 42s
True Declination0° 00' 00"
Sunlit
Object was in full shadow at TLE epoch
Visualization TLE readout
Latitude22.67761°
Longitude71.90213°
Altitude487.574 km
Speed7.623 km/s
Apparent Right ascension17h 49m 15s
Apparent Declination-8° 24' 52"
Sunlit
Object is in daylight
Visualization observer readout
Local Sidereal Time08:07:36
Azimuth53.841° ENE
Elevation-45.934°
Doppler factor1
Orbital elements
Apogee altitude481.847 km
Perigee altitude481.571 km
Semi-major axis6,859.846 km
Eccentricity0.0000201
Inclination97.0943°
RAAN58.1754°
Arg. of periapsis117.4342°
True anomaly242.68985°
Mean anomaly242.6919°
Eccentric anomaly242.69088°
Mean motion3.82007 °/min
BSTAR0.00049997
Orbital period94.24 mins
Loading maneuver chart data...
Loading historical data...
Loading historical data...
Loading historical data...
Loading historical data...
Loading historical data...
Loading historical data...
Loading historical data...

ZHUHAI-1 OVS-02 Visibility forecast

Observer location: undefined°, undefined

Span
Click to sort rows by Start time (UTC) header in descending order
Start Az.
Max El. time (UTC)
Max El. Az.
Max El.
End time (UTC)
End Az.
5 mins2025-01-15 15:13:03.154Z32.115° NE2025-01-15 15:15:03.154Z76.526° E33.048°2025-01-15 15:18:03.154Z166.056° S
4 mins2025-01-16 03:22:03.154Z216.113° SW2025-01-16 03:24:03.154Z270.173° WNW26.17°2025-01-16 03:26:03.154Z316.351° NNW
|